This is the latest recevied weather packets stored in our database for station/object N6GPM. If no packets are shown the sender has not sent any weather packets the latest 10 day(s).
| Time | Temp. | Humidity | Pressure | Rain* | Wind** | Luminosity | Snow |
|---|---|---|---|---|---|---|---|
| 1787438305 | 36.67° C | 23% | 1017.8 hPa | 0 mm | - | 722 W/m² | - |
| 1787437998 | 36.67° C | 23% | 1018 hPa | 0 mm | - | 739 W/m² | - |
| 1787437695 | 36.11° C | 23% | 1017.9 hPa | 0 mm | - | 754 W/m² | - |
| 1787437392 | 36.67° C | 23% | 1018.1 hPa | 0 mm | - | 768 W/m² | - |
| 1787437087 | 36.67° C | 23% | 1018.2 hPa | 0 mm | - | 783 W/m² | - |
| 1787436783 | 36.67° C | 23% | 1018 hPa | 0 mm | - | 793 W/m² | - |
| 1787436481 | 36.67° C | 22% | 1018.3 hPa | 0 mm | - | 810 W/m² | - |
| 1787436179 | 37.22° C | 21% | 1018.4 hPa | 0 mm | - | 826 W/m² | - |
| 1787435879 | 37.22° C | 21% | 1018.2 hPa | 0 mm | - | 839 W/m² | - |
| 1787435575 | 37.22° C | 22% | 1018.3 hPa | 0 mm | - | 852 W/m² | - |
| 1787435272 | 37.22° C | 22% | 1018.2 hPa | 0 mm | - | 863 W/m² | - |
| 1787434968 | 37.22° C | 24% | 1018.4 hPa | 0 mm | - | 875 W/m² | - |
| 1787434664 | 37.22° C | 24% | 1018.5 hPa | 0 mm | - | 887 W/m² | - |
| 1787434360 | 37.22° C | 24% | 1018.1 hPa | 0 mm | - | 898 W/m² | - |
| 1787434055 | 36.67° C | 24% | 1018.4 hPa | 0 mm | - | 908 W/m² | - |
| 1787433750 | 36.67° C | 22% | 1018.6 hPa | 0 mm | - | 919 W/m² | - |
| 1787433446 | 37.22° C | 21% | 1018.7 hPa | 0 mm | - | 930 W/m² | - |
| 1787433141 | 36.67° C | 21% | 1018.6 hPa | 0 mm | - | 938 W/m² | - |
| 1787432838 | 36.67° C | 20% | 1018.8 hPa | 0 mm | - | 947 W/m² | - |
| 1787432533 | 36.67° C | 20% | 1018.6 hPa | 0 mm | - | 952 W/m² | - |
| 1787432232 | 36.67° C | 20% | 1018.9 hPa | 0 mm | - | 961 W/m² | - |
| 1787431927 | 37.22° C | 18% | 1018.8 hPa | 0 mm | - | 967 W/m² | - |
| 1787431627 | 37.22° C | 18% | 1018.9 hPa | 0 mm | - | 973 W/m² | - |
| 1787431322 | 36.67° C | 18% | 1019 hPa | 0 mm | - | 980 W/m² | - |
| 1787431019 | 36.67° C | 18% | 1018.9 hPa | 0 mm | - | 988 W/m² | - |
* Rain latest hour (hover to see other rain measurements)
** Current wind speed in m/s (hover to see current wind gust speed)